Boulder Muni, Boulder, CO, CO

12:34 PM MDT on October 23, 2019 (GMT -0600)
Boulder Muni, Boulder, CO

Weather History for KBDU - August, 2019

Change the Weather History Date:

Saturday, August 3, 2019

  Actual Average Record
Temperature  
Mean Temperature 77 °F -  
Max Temperature 95 °F - 95 °F (2016)
Min Temperature 59 °F - 55 °F (2017)
Degree Days  
Heating Degree Days 0    
Month to date heating degree days 0  
Cooling Degree Days 12    
Month to date cooling degree days 29  
Growing Degree Days 27 (Base 50)    
Moisture  
Dew Point 48 °F    
Average Humidity 45    
Maximum Humidity 78    
Minimum Humidity 12    
Precipitation  
Precipitation 0.00 in - 0.28 in (2013)
Snow  
Snow 0.00 in - - ()
Snow Depth 0.00 in    
Sea Level Pressure  
Sea Level Pressure 30.21 in    
Wind  
Wind Speed 2 mph (East)    
Max Wind Speed 7 mph    
Max Gust Speed -    
Visibility 10 miles    
Events      
T = Trace of Precipitation, MM = Missing Value Source: NWS Daily Summary

Daily Weather History Graph

Daily Weather History Graph

Search for Another Location

Airport or City:

Astronomy

Aug. 03, 2019 Rise Set
Actual Time 6:00 AM MDT 8:12 PM MDT
Civil Twilight 5:30 AM MDT 8:42 PM MDT
Nautical Twilight 4:53 AM MDT 9:19 PM MDT
Astronomical Twilight 4:13 AM MDT 10:00 PM MDT
Moon 8:57 AM MDT (8/3) 10:19 PM MDT (8/3)
Length of Visible Light 15h 11m
Length of Day
14h 11m
Waxing Crescent, 10% of the Moon is Illuminated
Aug 3
Waxing Crescent
Aug 7
First Quarter
Aug 15
Full
Aug 23
Last Quarter
Aug 30
New

Hourly Weather History & Observations

Time (MDT) Temp. Heat Index Dew Point Humidity Pressure Visibility Wind Dir Wind Speed Gust Speed Precip Events Conditions
12:12 AM 69.8 °F - 53.6 °F 56% 30.29 in 10.0 mi Calm Calm - N/A   Scattered Clouds
12:30 AM 69.8 °F - 53.6 °F 56% 30.28 in 10.0 mi Calm Calm - N/A   Clear
12:48 AM 69.8 °F - 53.6 °F 56% 30.28 in 10.0 mi Calm Calm - N/A   Clear
1:11 AM 68.0 °F - 55.4 °F 64% 30.27 in 10.0 mi Calm Calm - N/A   Clear
1:29 AM 69.8 °F - 51.8 °F 53% 30.27 in 10.0 mi Calm Calm - N/A   Clear
1:53 AM 69.8 °F - 51.8 °F 53% 30.26 in 10.0 mi WSW 4.6 mph - N/A   Clear
2:12 AM 64.4 °F - 53.6 °F 68% 30.26 in 10.0 mi Calm Calm - N/A   Clear
2:30 AM 66.2 °F - 51.8 °F 60% 30.25 in 10.0 mi Calm Calm - N/A   Clear
2:48 AM 66.2 °F - 51.8 °F 60% 30.24 in 10.0 mi Calm Calm - N/A   Clear
3:12 AM 64.4 °F - 55.4 °F 73% 30.24 in 10.0 mi West 3.5 mph - N/A   Clear
3:30 AM 64.4 °F - 53.6 °F 68% 30.23 in 10.0 mi WSW 3.5 mph - N/A   Clear
3:54 AM 66.2 °F - 53.6 °F 64% 30.22 in 10.0 mi West 4.6 mph - N/A   Clear
4:12 AM 66.2 °F - 51.8 °F 60% 30.22 in 10.0 mi Calm Calm - N/A   Clear
4:54 AM 64.4 °F - 51.8 °F 64% 30.22 in 10.0 mi Calm Calm - N/A   Clear
5:12 AM 62.6 °F - 53.6 °F 72% 30.22 in 10.0 mi Calm Calm - N/A   Clear
5:30 AM 62.6 °F - 53.6 °F 72% 30.22 in 10.0 mi West 3.5 mph - N/A   Clear
5:54 AM 60.8 °F - 53.6 °F 77% 30.23 in 10.0 mi North 4.6 mph - N/A   Clear
6:14 AM 59.0 °F - 53.6 °F 82% 30.24 in 10.0 mi North 3.5 mph - N/A   Clear
6:32 AM 60.8 °F - 53.6 °F 77% 30.24 in 10.0 mi Calm Calm - N/A   Clear
6:50 AM 62.6 °F - 55.4 °F 77% 30.24 in 10.0 mi Calm Calm - N/A   Clear
7:12 AM 64.4 °F - 55.4 °F 73% 30.24 in 10.0 mi Calm Calm - N/A   Clear
7:30 AM 68.0 °F - 55.4 °F 64% 30.24 in 10.0 mi Calm Calm - N/A   Clear
7:54 AM 69.8 °F - 55.4 °F 60% 30.24 in 10.0 mi Calm Calm - N/A   Clear
8:12 AM 69.8 °F - 55.4 °F 60% 30.25 in 10.0 mi Calm Calm - N/A   Clear
8:30 AM 69.8 °F - 53.6 °F 56% 30.25 in 10.0 mi Calm Calm - N/A   Clear
8:54 AM 71.6 °F - 53.6 °F 53% 30.24 in 10.0 mi Calm Calm - N/A   Clear
9:12 AM 71.6 °F - 53.6 °F 53% 30.24 in 10.0 mi SE 3.5 mph - N/A   Clear
9:30 AM 73.4 °F - 53.6 °F 50% 30.24 in 10.0 mi Calm Calm - N/A   Clear
9:54 AM 75.2 °F - 53.6 °F 47% 30.24 in 10.0 mi Calm Calm - N/A   Clear
10:12 AM 77.0 °F - 53.6 °F 44% 30.24 in 10.0 mi Calm Calm - N/A   Clear
10:30 AM 78.8 °F - 53.6 °F 42% 30.24 in 10.0 mi East 3.5 mph - N/A   Clear
10:54 AM 80.6 °F 80.3 °F 53.6 °F 39% 30.24 in 10.0 mi East 5.8 mph - N/A   Clear
11:12 AM 80.6 °F 80.3 °F 53.6 °F 39% 30.24 in 10.0 mi East 3.5 mph - N/A   Clear
11:30 AM 82.4 °F - 51.8 °F 35% 30.23 in 10.0 mi ENE 4.6 mph - N/A   Clear
11:48 AM 82.4 °F - 50.0 °F 32% 30.23 in 10.0 mi NNE 4.6 mph - N/A   Clear
12:12 PM 86.0 °F - 50.0 °F 29% 30.22 in 10.0 mi East 3.5 mph - N/A   Clear
12:30 PM 86.0 °F - 48.2 °F 27% 30.22 in 10.0 mi NNE 3.5 mph - N/A   Clear
12:48 PM 87.8 °F - 50.0 °F 27% 30.22 in 10.0 mi NE 4.6 mph - N/A   Clear
1:12 PM 89.6 °F - 51.8 °F 27% 30.21 in 10.0 mi ENE 6.9 mph - N/A   Clear
1:30 PM 91.4 °F - 50.0 °F 24% 30.20 in 10.0 mi ENE 3.5 mph - N/A   Clear
1:48 PM 91.4 °F - 48.2 °F 23% 30.20 in 10.0 mi East 6.9 mph - N/A   Clear
2:12 PM 91.4 °F - 41.0 °F 17% 30.20 in 10.0 mi Calm Calm - N/A   Clear
2:30 PM 93.2 °F - 37.4 °F 14% 30.18 in 10.0 mi Calm Calm - N/A   Clear
2:48 PM 93.2 °F - 37.4 °F 14% 30.18 in 10.0 mi East 4.6 mph - N/A   Clear
3:12 PM 91.4 °F - 39.2 °F 16% 30.17 in 10.0 mi East 4.6 mph - N/A   Clear
3:30 PM 93.2 °F - 37.4 °F 14% 30.16 in 10.0 mi East 5.8 mph - N/A   Clear
3:48 PM 93.2 °F - 37.4 °F 14% 30.15 in 10.0 mi NE 3.5 mph - N/A   Clear
4:12 PM 95.0 °F - 37.4 °F 13% 30.15 in 10.0 mi SE 3.5 mph - N/A   Clear
4:30 PM 95.0 °F - 35.6 °F 12% 30.14 in 10.0 mi East 6.9 mph - N/A   Clear
4:48 PM 95.0 °F - 35.6 °F 12% 30.14 in 10.0 mi ESE 5.8 mph - N/A   Clear
5:12 PM 95.0 °F - 35.6 °F 12% 30.14 in 10.0 mi East 3.5 mph - N/A   Clear
5:30 PM 93.2 °F - 35.6 °F 13% 30.14 in 10.0 mi NE 4.6 mph - N/A   Clear
5:48 PM 93.2 °F - 37.4 °F 14% 30.14 in 10.0 mi East 3.5 mph - N/A   Clear
6:08 PM 89.6 °F - 37.4 °F 16% 30.14 in 10.0 mi ESE 4.6 mph - N/A   Clear
6:32 PM 89.6 °F - 37.4 °F 16% 30.13 in 10.0 mi ENE 4.6 mph - N/A   Clear
6:50 PM 89.6 °F - 39.2 °F 17% 30.14 in 10.0 mi ESE 3.5 mph - N/A   Clear
7:12 PM 89.6 °F - 39.2 °F 17% 30.14 in 10.0 mi ENE 4.6 mph - N/A   Clear
7:30 PM 87.8 °F - 42.8 °F 21% 30.14 in 10.0 mi ENE 4.6 mph - N/A   Clear
7:54 PM 86.0 °F - 42.8 °F 22% 30.15 in 10.0 mi East 3.5 mph - N/A   Clear
8:12 PM 84.2 °F - 46.4 °F 27% 30.16 in 10.0 mi SSE 3.5 mph - N/A   Clear
8:30 PM 82.4 °F - 48.2 °F 30% 30.17 in 10.0 mi Calm Calm - N/A   Clear
8:54 PM 82.4 °F - 48.2 °F 30% 30.17 in 10.0 mi Calm Calm - N/A   Clear
9:12 PM 80.6 °F - 48.2 °F 32% 30.18 in 10.0 mi Calm Calm - N/A   Clear
9:30 PM 80.6 °F - 48.2 °F 32% 30.19 in 10.0 mi Calm Calm - N/A   Clear
9:54 PM 80.6 °F - 50.0 °F 34% 30.19 in 10.0 mi Calm Calm - N/A   Clear
10:12 PM 78.8 °F - 50.0 °F 36% 30.20 in 10.0 mi Calm Calm - N/A   Clear
10:30 PM 78.8 °F - 50.0 °F 36% 30.20 in 10.0 mi SSE 3.5 mph - N/A   Clear
10:54 PM 77.0 °F - 51.8 °F 41% 30.20 in 10.0 mi Calm Calm - N/A   Clear
11:12 PM 75.2 °F - 46.4 °F 36% 30.20 in 10.0 mi SW 4.6 mph - N/A   Clear
11:30 PM 77.0 °F - 44.6 °F 32% 30.20 in 10.0 mi Calm Calm - N/A   Clear
11:53 PM 77.0 °F - 44.6 °F 32% 30.20 in 10.0 mi South 3.5 mph - N/A   Clear